Location: Raleigh
(35.7720°N, 78.6390°W)
Time: 21:34:07
(UTC-04:00)

Amateur Radio Satellites - All Passes

Search period start: 24 July 2014 21:04
Search period end: 25 July 2014 21:04
Location: Raleigh, 35.7720°N, 78.6390°W

Satellite Date Start Highest point End Downlink Frequencies (MHz)
Time Altitude Azimuth
Oscar 11 24 Jul 21:24:46 21:27:58 21° 69° (ENE) 21:31:10 145.825 FM, Beacon 2401.500 USB
MaSat-1 24 Jul 21:58:13 22:01:14 23° 103° (ESE) 22:04:39 437.345 MHz
UKube-1 24 Jul 22:09:11 22:13:25 51° 260° (W) 22:17:42 145.840 MHz, 145.915 MHz
SO-50 24 Jul 22:32:30 22:36:37 28° 52° (NE) 22:40:47 436.795 FM
HO-68 24 Jul 22:47:27 22:53:17 27° 264° (W) 22:59:10 435.675 MHz FM
RS-15 24 Jul 22:49:44 22:59:58 41° 48° (NE) 23:10:29 29.354 - 29.394 USB, Beacon 29.352 USB
Oscar 11 24 Jul 23:00:14 23:03:57 29° 263° (W) 23:07:42 145.825 FM, Beacon 2401.500 USB
FUNcube-1 24 Jul 23:07:46 23:12:10 70° 259° (WSW) 23:16:28 145.950 - 145.970 MHz USB
Lituanica SAT-1 24 Jul 23:31:27 23:33:25 39° 135° (SE) 23:35:25 437.275 MHz beacon
MaSat-1 24 Jul 23:35:12 23:38:26 24° 304° (NW) 23:42:07 437.345 MHz
SO-50 25 Jul 00:12:58 00:17:08 30° 248° (WSW) 00:21:20 436.795 FM
ISS 25 Jul 00:31:42 00:34:23 23° 130° (SE) 00:37:06 145.800 FM
UOSAT-12 25 Jul 00:59:05 01:03:44 57° 58° (ENE) 01:08:19 437.025 FM, 437.400 FM
RS-15 25 Jul 01:01:56 01:12:38 57° 249° (WSW) 01:23:47 29.354 - 29.394 USB, Beacon 29.352 USB
Sapphire 25 Jul 01:03:04 01:06:50 20° 105° (ESE) 01:10:37 437.095 MHz 1200 baud AX-25 AFSK
AO-40 25 Jul 01:23:07 04:37:05 27° 125° (SE) 05:58:41 Beacon 2401.320
PCSat 25 Jul 01:35:24 01:40:28 44° 111° (ESE) 01:45:35 145.825 MHz
Oscar 19 25 Jul 01:41:00 01:43:56 15° 93° (E) 01:46:52 437.125 CW, 437.150 USB
Oscar 16 25 Jul 02:07:15 02:11:46 30° 97° (E) 02:16:16 437.025 USB, Beacon 2401.1428
ISS 25 Jul 02:07:59 02:11:00 30° 325° (NW) 02:14:01 145.800 FM
JAS-1B 25 Jul 02:14:59 02:19:42 15° 84° (E) 02:24:05 435.800 - 435.900 CW/SSB
ITAMSAT 1 25 Jul 02:19:45 02:22:55 16° 93° (E) 02:26:04 435.822 SSB
AO-Echo 25 Jul 02:32:27 02:36:26 23° 94° (E) 02:40:17 ?
AO-27 25 Jul 02:36:52 02:41:06 25° 96° (E) 02:45:19 436.795 MHz FM
Uribyol 2 25 Jul 02:39:23 02:43:46 28° 96° (E) 02:48:08 436.500 FM
UOSAT-12 25 Jul 02:41:03 02:43:21 14° 253° (WSW) 02:45:39 437.025 FM, 437.400 FM
Sapphire 25 Jul 02:44:38 02:49:50 48° 301° (WNW) 02:55:05 437.095 MHz 1200 baud AX-25 AFSK
Oscar 19 25 Jul 03:18:32 03:23:33 54° 287° (WNW) 03:28:34 437.125 CW, 437.150 USB
PCSat 25 Jul 03:19:44 03:24:03 24° 307° (NW) 03:28:24 145.825 MHz
Oscar 16 25 Jul 03:46:39 03:50:59 28° 291° (WNW) 03:55:20 437.025 USB, Beacon 2401.1428
TMSAT-1 25 Jul 03:51:29 03:56:25 39° 98° (E) 04:01:19 436.925 FM
ITAMSAT 1 25 Jul 03:57:40 04:02:40 51° 288° (WNW) 04:07:38 435.822 SSB
JAS-1B 25 Jul 04:02:04 04:11:40 83° 104° (ESE) 04:19:50 435.800 - 435.900 CW/SSB
OPAL 25 Jul 04:03:09 04:07:57 53° 71° (ENE) 04:12:45 ?
AO-Echo 25 Jul 04:10:38 04:15:14 35° 290° (WNW) 04:19:41 ?
Gurwin Techsat 1B 25 Jul 04:12:40 04:18:00 89° 103° (ESE) 04:23:19 435.225 FM
AO-27 25 Jul 04:15:59 04:20:36 33° 290° (WNW) 04:25:11 436.795 MHz FM
Uribyol 2 25 Jul 04:18:43 04:23:10 30° 291° (WNW) 04:27:36 436.500 FM
Uosat F 25 Jul 04:26:02 04:29:12 17° 94° (E) 04:32:20 435.120 FM
AO-7 25 Jul 05:00:19 05:08:02 41° 100° (E) 05:15:41 29.400 - 29.500 MHz
TMSAT-1 25 Jul 05:31:59 05:36:04 23° 293° (WNW) 05:40:08 436.925 FM
OPAL 25 Jul 05:44:24 05:47:06 15° 265° (W) 05:49:48 ?
JAS-1B 25 Jul 05:54:03 06:00:48 23° 304° (NW) 06:07:03 435.800 - 435.900 CW/SSB
Gurwin Techsat 1B 25 Jul 05:56:20 05:57:10 10° 299° (WNW) 05:57:59 435.225 FM
Uosat F 25 Jul 06:03:23 06:08:11 47° 288° (WNW) 06:12:57 435.120 FM
KITSAT 1 25 Jul 06:16:59 06:23:31 28° 105° (ESE) 06:30:02 435.175 FM
STRAND 1 25 Jul 06:19:53 06:23:58 25° 67° (ENE) 06:28:04 ?
Hamsat 25 Jul 06:29:22 06:32:48 23° 95° (E) 06:36:15 145.90 MHz
AO-7 25 Jul 06:53:06 07:00:43 41° 296° (WNW) 07:08:17 29.400 - 29.500 MHz
Oscar 10/S400 25 Jul 06:57:30 08:19:08 32° 251° (WSW) 11:59:44 145.825 - 145.975 CW/USB, Beacon 145.810 USB
ISS 25 Jul 07:03:07 07:04:54 14° 25° (NNE) 07:06:40 145.800 FM
JAS-2 25 Jul 07:12:59 07:18:51 50° 99° (E) 07:24:06 435.800 - 435.900 CW/SSB, 435.910 FM
Lituanica SAT-1 25 Jul 07:18:25 07:20:27 47° 224° (SW) 07:22:27 437.275 MHz beacon
PANSAT 25 Jul 07:29:55 07:32:53 21° 169° (SSE) 07:35:50 not established
MaSat-1 25 Jul 07:55:18 08:00:20 41° 61° (ENE) 08:05:06 437.345 MHz
STRAND 1 25 Jul 07:58:16 08:02:56 35° 262° (W) 08:07:38 ?
Hamsat 25 Jul 08:05:09 08:08:41 25° 289° (WNW) 08:12:13 145.90 MHz
KITSAT 1 25 Jul 08:10:25 08:18:21 58° 302° (WNW) 08:26:21 435.175 FM
SO-67 25 Jul 08:17:37 08:21:05 68° 101° (E) 08:24:32 435.3500 MHz FM
ISS 25 Jul 08:38:40 08:42:02 90° 227° (SW) 08:45:23 145.800 FM
Saudisat 1A 25 Jul 08:54:34 08:58:58 73° 118° (ESE) 09:03:23 436.775 MHz
JAS-2 25 Jul 08:59:10 09:03:22 20° 298° (WNW) 09:07:18 435.800 - 435.900 CW/SSB, 435.910 FM
PANSAT 25 Jul 09:09:18 09:12:36 27° 181° (S) 09:15:54 not established
MaSat-1 25 Jul 09:33:20 09:37:23 23° 258° (WSW) 09:41:15 437.345 MHz
Sapphire 25 Jul 09:55:11 09:56:17 11° 44° (NE) 09:57:23 437.095 MHz 1200 baud AX-25 AFSK
UKube-1 25 Jul 10:00:34 10:04:29 32° 98° (E) 10:08:21 145.840 MHz, 145.915 MHz
KITSAT 1 25 Jul 10:11:45 10:15:39 14° 325° (NW) 10:19:33 435.175 FM
HO-68 25 Jul 10:16:33 10:23:41 69° 104° (ESE) 10:30:47 435.675 MHz FM
PCSat 25 Jul 10:26:44 10:30:48 21° 51° (NE) 10:34:50 145.825 MHz
Saudisat 1A 25 Jul 10:37:05 10:39:02 13° 315° (NW) 10:41:00 436.775 MHz
PANSAT 25 Jul 10:49:35 10:52:19 19° 194° (SSW) 10:55:02 not established
Oscar 11 25 Jul 10:50:01 10:54:19 61° 101° (E) 10:58:36 145.825 FM, Beacon 2401.500 USB
FUNcube-1 25 Jul 11:00:19 11:03:49 26° 96° (E) 11:07:19 145.950 - 145.970 MHz USB
Sapphire 25 Jul 11:35:14 11:40:40 73° 63° (ENE) 11:46:03 437.095 MHz 1200 baud AX-25 AFSK
UKube-1 25 Jul 11:37:20 11:40:27 19° 292° (WNW) 11:43:32 145.840 MHz, 145.915 MHz
HO-68 25 Jul 12:05:42 12:10:41 21° 300° (WNW) 12:15:41 435.675 MHz FM
PCSat 25 Jul 12:09:15 12:14:30 52° 248° (WSW) 12:19:42 145.825 MHz
Oscar 11 25 Jul 12:29:05 12:29:56 11° 295° (WNW) 12:30:48 145.825 FM, Beacon 2401.500 USB
FUNcube-1 25 Jul 12:36:55 12:40:04 21° 290° (WNW) 12:43:14 145.950 - 145.970 MHz USB
SO-50 25 Jul 12:46:26 12:49:05 16° 109° (ESE) 12:51:45 436.795 FM
Oscar 19 25 Jul 12:55:24 12:58:40 17° 65° (ENE) 13:01:57 437.125 CW, 437.150 USB
JAS-1B 25 Jul 12:57:54 13:01:01 12° 48° (NE) 13:04:13 435.800 - 435.900 CW/SSB
RS-15 25 Jul 13:11:15 13:20:29 31° 105° (ESE) 13:29:28 29.354 - 29.394 USB, Beacon 29.352 USB
Sapphire 25 Jul 13:21:15 13:23:23 12° 257° (WSW) 13:25:30 437.095 MHz 1200 baud AX-25 AFSK
Oscar 16 25 Jul 13:21:34 13:26:06 33° 70° (ENE) 13:30:39 437.025 USB, Beacon 2401.1428
ITAMSAT 1 25 Jul 13:35:03 13:38:44 20° 66° (ENE) 13:42:26 435.822 SSB
AO-Echo 25 Jul 13:42:19 13:46:29 24° 67° (ENE) 13:50:41 ?
AO-27 25 Jul 13:52:15 13:56:43 30° 69° (ENE) 14:01:12 436.795 MHz FM
Uribyol 2 25 Jul 13:54:29 13:59:04 32° 69° (ENE) 14:03:39 436.500 FM
Gurwin Techsat 1B 25 Jul 13:55:03 13:56:56 12° 62° (ENE) 13:58:50 435.225 FM
KITSAT 1 25 Jul 14:15:17 14:16:37 10° 30° (NNE) 14:17:57 435.175 FM
SO-50 25 Jul 14:24:57 14:29:13 45° 304° (NW) 14:33:34 436.795 FM
Oscar 19 25 Jul 14:32:39 14:37:35 50° 260° (W) 14:42:33 437.125 CW, 437.150 USB
JAS-1B 25 Jul 14:40:58 14:49:12 57° 69° (ENE) 14:58:34 435.800 - 435.900 CW/SSB
Oscar 16 25 Jul 15:01:18 15:05:26 25° 264° (W) 15:09:36 437.025 USB, Beacon 2401.1428
UOSAT-12 25 Jul 15:07:51 15:11:55 32° 113° (ESE) 15:16:04 437.025 FM, 437.400 FM
TMSAT-1 25 Jul 15:09:23 15:14:25 46° 72° (ENE) 15:19:27 436.925 FM
ITAMSAT 1 25 Jul 15:12:53 15:17:52 45° 261° (W) 15:22:52 435.822 SSB
AO-Echo 25 Jul 15:20:07 15:24:58 38° 262° (W) 15:29:55 ?
RS-15 25 Jul 15:20:55 15:31:59 65° 303° (WNW) 15:42:52 29.354 - 29.394 USB, Beacon 29.352 USB
Gurwin Techsat 1B 25 Jul 15:30:52 15:36:11 79° 257° (WSW) 15:41:31 435.225 FM
AO-27 25 Jul 15:31:38 15:36:08 29° 263° (W) 15:40:39 436.795 MHz FM
Uribyol 2 25 Jul 15:34:11 15:38:30 26° 264° (W) 15:42:50 436.500 FM
Uosat F 25 Jul 15:36:47 15:40:11 18° 65° (ENE) 15:43:35 435.120 FM
AO-7 25 Jul 15:56:04 16:03:48 44° 64° (ENE) 16:11:32 29.400 - 29.500 MHz
KITSAT 1 25 Jul 16:06:52 16:14:30 43° 54° (NE) 16:22:03 435.175 FM
OPAL 25 Jul 16:16:51 16:20:13 18° 96° (E) 16:23:36 ?
JAS-1B 25 Jul 16:32:45 16:40:02 32° 268° (W) 16:48:15 435.800 - 435.900 CW/SSB
UOSAT-12 25 Jul 16:48:16 16:52:04 25° 309° (NW) 16:55:58 437.025 FM, 437.400 FM
TMSAT-1 25 Jul 16:50:51 16:54:31 19° 266° (W) 16:58:12 436.925 FM
Uosat F 25 Jul 17:13:45 17:18:34 46° 260° (W) 17:23:26 435.120 FM
JAS-2 25 Jul 17:21:26 17:27:03 22° 63° (ENE) 17:32:29 435.800 - 435.900 CW/SSB, 435.910 FM
Hamsat 25 Jul 17:22:03 17:23:36 12° 66° (ENE) 17:25:09 145.90 MHz
Saudisat 1A 25 Jul 17:24:30 17:28:12 26° 52° (NE) 17:31:53 436.775 MHz
Oscar 10/S400 25 Jul 17:25:47 17:36:39 14° 150° (SSE) 17:45:46 145.825 - 145.975 CW/USB, Beacon 145.810 USB
RS-15 25 Jul 17:39:35 17:46:59 20° 331° (NNW) 17:54:24 29.354 - 29.394 USB, Beacon 29.352 USB
AO-7 25 Jul 17:48:56 17:56:32 39° 261° (W) 18:04:12 29.400 - 29.500 MHz
OPAL 25 Jul 17:54:26 17:59:16 46° 290° (WNW) 18:04:08 ?
KITSAT 1 25 Jul 18:02:27 18:09:45 39° 252° (WSW) 18:17:01 435.175 FM
SO-67 25 Jul 18:49:28 18:51:25 14° 70° (ENE) 18:53:22 435.3500 MHz FM
Hamsat 25 Jul 18:55:04 18:59:06 49° 261° (W) 19:03:10 145.90 MHz
JAS-2 25 Jul 19:03:29 19:11:21 74° 258° (WSW) 19:18:57 435.800 - 435.900 CW/SSB, 435.910 FM
Saudisat 1A 25 Jul 19:03:58 19:07:44 28° 248° (WSW) 19:11:28 436.775 MHz
RS-15 25 Jul 20:01:36 20:05:55 13° 9° (N) 20:10:16 29.354 - 29.394 USB, Beacon 29.352 USB
STRAND 1 25 Jul 20:11:17 20:16:24 82° 284° (WNW) 20:21:29 ?
SO-67 25 Jul 20:21:20 20:24:14 25° 264° (W) 20:27:10 435.3500 MHz FM
HO-68 25 Jul 20:42:08 20:48:38 39° 66° (ENE) 20:55:08 435.675 MHz FM
UKube-1 25 Jul 20:54:00 20:57:14 21° 68° (ENE) 21:00:28 145.840 MHz, 145.915 MHz
JAS-2 25 Jul 20:54:58 20:57:11 11° 272° (W) 20:59:24 435.800 - 435.900 CW/SSB, 435.910 FM
